Location: Plum
(40.5000°N, 79.7500°W)
Time: 13:19:58
(UTC-04:00)

MOZ.5/SAFIR/RUBIN 5/SL-8 - Visible Passes

Search period start: 26 September 2016 00:00
Search period end: 06 October 2016 00:00
Orbit: 679 x 706 km, 97.9° (Epoch: 25 September)

Date Brightness Start Highest point End Pass type
(mag) Time Alt. Az. Time Alt. Az. Time Alt. Az.
26 Sep 4.0 04:51:08 61° N 04:51:08 61° N 04:55:05 10° N visible
27 Sep 6.0 03:52:56 22° ENE 03:52:56 22° ENE 03:56:28 10° NNE visible
27 Sep 4.7 05:31:39 30° WNW 05:31:39 30° WNW 05:34:34 10° NNW visible
28 Sep 4.8 04:33:27 43° NNE 04:33:27 43° NNE 04:36:56 10° N visible
28 Sep 5.7 06:12:09 12° WNW 06:12:09 12° WNW 06:12:56 10° NW visible
29 Sep 6.5 03:35:15 15° ENE 03:35:15 15° ENE 03:37:41 10° NNE visible
29 Sep 4.7 05:13:57 33° NW 05:13:57 33° NW 05:16:43 10° NNW visible
30 Sep 5.5 04:15:46 29° NE 04:15:46 29° NE 04:18:40 10° N visible
30 Sep 5.6 05:54:28 16° NW 05:54:28 16° NW 05:55:44 10° NW visible
01 Oct 6.9 03:17:35 10° NE 03:17:35 10° NE 03:17:51 10° NE visible
01 Oct 5.1 04:56:17 31° NNW 04:56:17 31° NNW 04:58:44 10° NNW visible
02 Oct 6.2 03:58:06 20° NE 03:58:06 20° NE 04:00:14 10° NNE visible
02 Oct 5.6 05:36:48 17° NW 05:36:48 17° NW 05:38:08 10° NNW visible
03 Oct 5.6 04:38:37 24° N 04:38:37 24° N 04:40:37 10° N visible
04 Oct 6.6 03:40:26 14° NE 03:40:26 14° NE 03:41:33 10° NNE visible
04 Oct 5.7 05:19:09 17° NNW 05:19:09 17° NNW 05:20:20 10° NNW visible
05 Oct 6.1 04:20:58 18° N 04:20:58 18° N 04:22:22 10° N visible
